Location: Drocourt
(49.0571°N, 1.7669°E)
Time: 15:36:06
(UTC+00:00)

Vanguard 2 Rocket - Pass Details

Date: 14 April 2024
Orbit: 556 x 3304 km, 32.9° (Epoch: 22 May)

Event Time Altitude Azimuth Distance (km) Brightness Sun altitude
Rises 23:29:28 0° 236° (SW) 7,048 11.2 -30.9°
Reaches altitude 10° 23:34:24 10° 231° (SW) 6,177 10.8 -30.9°
Enters shadow 23:39:53 22° 221° (SW) 5,275 10.3 -31.0°
Exits shadow 23:53:32 43° 161° (SSE) 3,939 9.5 -31.1°
Drops below altitude 10° 00:07:13 10° 105° (ESE) 5,167 10.6 -31.0°
Sets 00:10:53 0° 99° (E) 5,854 11.0 -30.9°
